Weather Roundup
Issued by NWS

Home | Current Version | Previous Version | Graphics & Text | Print | Product List | Glossary Off
Versions: 1 2 3 4 5 6 7 8 9 10 11 12 13 14 15 16 17 18 19 20 21 22 23 24 25 26 27 28 29 30 31 32 33 34 35 36 37 38 39 40 41 42 43 44 45 46 47 48 49 50

094
NZUS93 KARX 060359
HRRWXR

CURRENT HOURLY OBSERVATIONS ACROSS
MUCH OF THE UPPER MISSISSIPPI VALLEY
NATIONAL WEATHER SERVICE LA CROSSE WI
1100 PM CDT THU MAY 05 2016


...SOUTHEAST MINNESOTA...


CITY           SKY/WX    TMP DP  RH WIND       PRES   REMARKS
ROCHESTER      CLEAR     56  40  55 S9        29.95F
ROCHESTER/MAYO FAIR      65  37  35 SW8       29.93F
WINONA         CLEAR     55  48  76 CALM      29.93S
AUSTIN         CLEAR     57  39  51 S5        29.95S
ALBERT LEA     CLEAR     61  43  51 SW6       29.95S
DODGE CENTER   CLEAR     57  39  51 SW9       29.94S
PRESTON        CLEAR     58  37  43 SW12      29.95F
OWATONNA       CLEAR     61  37  41 SW10      29.93S
FARIBAULT      CLEAR     63  41  45 S3        29.92S
$$

...ELSEWHERE IN MINNESOTA...


CITY           SKY/WX    TMP DP  RH WIND       PRES   REMARKS
MINNEAPOLIS    CLEAR     69  40  34 SW7       29.88S
INTNL FALLS    CLEAR     58  46  64 SW5       29.70F
DULUTH         CLEAR     68  41  37 SW14      29.79F
RED WING       CLEAR     54  43  66 CALM      29.89S
REDWOOD FALLS  CLEAR     62  41  46 S8        29.91S
MANKATO        CLEAR     66  39  37 SW7       29.93R
WORTHINGTON    CLEAR     64  43  46 SW13      29.96S
FAIRMONT       CLEAR     63  39  42 SW8       29.95R
$$

...SOUTHWEST WISCONSIN...


CITY           SKY/WX    TMP DP  RH WIND       PRES   REMARKS
LA CROSSE      CLEAR     60  44  55 S7        29.93S
PRAIRIE DU CHI CLOUDY    54  43  66 CALM      29.96F
BOSCOBEL       CLOUDY    53  42  66 CALM      29.97S
LONE ROCK      NOT AVBL
PLATTEVILLE    CLEAR     55  37  51 S5        29.98S
FORT MC COY    PTCLDY    52  41  67 CALM      29.95F
MAUSTON-NEW LI LGT RAIN  52  44  73 CALM      29.94F
VIROQUA        FAIR      58  37  46 S6        29.96S
WIS DELLS      CLEAR     52  35  52 CALM      29.96S
$$

...ELSEWHERE IN WISCONSIN...


CITY           SKY/WX    TMP DP  RH WIND       PRES   REMARKS
MILWAUKEE      PTCLDY    47  37  68 SW5       29.98S
MADISON        CLEAR     48  36  63 CALM      29.97R
GREEN BAY      CLOUDY    52  42  69 S5        29.93S
EAU CLAIRE     NOT AVBL
BLACK RVR FLS  FAIR      47  39  73 CALM      29.93S
MEDFORD        PTCLDY    55  40  57 S5        29.91F
WAUSAU         PTCLDY    57  46  66 S3        29.92S
WIS RAPIDS     MOCLDY    54  41  61 S3        29.94F
MARSHFIELD     CLOUDY    57  39  51 S5        29.92S
RICE LAKE      CLEAR     58  38  48 S5        29.90S
$$

...NORTHEAST IOWA...


CITY           SKY/WX    TMP DP  RH WIND       PRES   REMARKS
WATERLOO       CLEAR     56  38  50 S3        29.97S
DUBUQUE        CLEAR     51  39  63 SW3       29.98F
DECORAH        CLEAR     59  36  41 SW5       29.95S
MASON CITY     CLEAR     55  41  59 SW5       29.98R
CHARLES CITY   CLEAR     59  36  41 S9        29.97S
OELWEIN        CLEAR     54  37  54 S9        29.98F
$$

...ELSEWHERE IN IOWA...


CITY           SKY/WX    TMP DP  RH WIND       PRES   REMARKS
DES MOINES     CLEAR     58  38  47 S7        30.01R
IOWA CITY      CLEAR     52  39  61 CALM      30.01S
FORT DODGE     CLEAR     57  39  51 CALM      29.99S
MARSHALLTOWN   CLEAR     56  37  49 SW7       29.98S
CEDAR RAPIDS   CLEAR     53  38  56 CALM      29.99S
$$

...NORTHERN ILLINOIS...


CITY           SKY/WX    TMP DP  RH WIND       PRES   REMARKS
CHICAGO-OHARE  CLEAR     48  38  68 CALM      29.99R
CHICAGO-MIDWAY CLEAR     51  38  60 CALM      29.99S
MOLINE         CLEAR     47  41  80 CALM      29.99S
ROCKFORD       CLEAR     49  41  74 CALM      30.00S
PEORIA         CLEAR     49  42  77 CALM      30.01S
$$

NOTE: "FAIR" INDICATES FEW OR NO CLOUDS BELOW 12,000 FEET WITH NO
SIGNIFICANT WEATHER AND/OR OBSTRUCTIONS TO VISIBILITY. WIND
SPEEDS ARE IN MILES-PER-HOUR.




USA.gov is the U.S. government's official web portal to all federal, state and local government web resources and services.